TimeCDT,TemperatureF,Dew PointF,Humidity,Sea Level PressureIn,VisibilityMPH,Wind Direction,Wind SpeedMPH,Gust SpeedMPH,PrecipitationIn,Events,Conditions,WindDirDegrees,DateUTC
12:12 AM,17.6,5.4,59,30.50,10.0,NW,9.2,-,N/A,,Clear,320,2014-03-23 05:12:00
12:32 AM,17.4,5.5,60,30.50,10.0,NW,8.1,-,N/A,,Clear,310,2014-03-23 05:32:00
12:52 AM,16.9,5.5,61,30.51,10.0,NW,5.8,-,N/A,,Clear,320,2014-03-23 05:52:00
1:12 AM,16.5,5.4,62,30.51,10.0,NW,5.8,-,N/A,,Clear,320,2014-03-23 06:12:00
1:32 AM,16.5,5.0,61,30.51,10.0,NNW,5.8,-,N/A,,Clear,330,2014-03-23 06:32:00
1:52 AM,16.0,4.6,61,30.52,10.0,NNW,8.1,-,N/A,,Clear,330,2014-03-23 06:52:00
2:12 AM,15.6,4.8,62,30.52,10.0,NNW,5.8,-,N/A,,Clear,330,2014-03-23 07:12:00
2:32 AM,14.9,5.0,65,30.52,10.0,NNW,3.5,-,N/A,,Clear,330,2014-03-23 07:32:00
2:52 AM,14.9,5.0,65,30.52,10.0,NW,5.8,-,N/A,,Clear,320,2014-03-23 07:52:00
3:12 AM,14.9,3.7,61,30.52,10.0,NNW,5.8,-,N/A,,Clear,340,2014-03-23 08:12:00
3:32 AM,14.5,2.7,59,30.52,10.0,NNW,5.8,-,N/A,,Clear,330,2014-03-23 08:32:00
3:52 AM,14.0,2.7,61,30.51,10.0,NW,5.8,-,N/A,,Clear,320,2014-03-23 08:52:00
4:12 AM,13.8,2.3,60,30.51,10.0,NNW,4.6,-,N/A,,Clear,330,2014-03-23 09:12:00
4:32 AM,13.8,2.8,62,30.51,10.0,NW,3.5,-,N/A,,Clear,320,2014-03-23 09:32:00
4:52 AM,13.6,3.2,63,30.50,10.0,NNW,5.8,-,N/A,,Clear,330,2014-03-23 09:52:00
5:12 AM,13.6,3.2,63,30.50,10.0,NW,4.6,-,N/A,,Clear,320,2014-03-23 10:12:00
5:32 AM,12.9,3.2,65,30.51,10.0,NW,3.5,-,N/A,,Clear,320,2014-03-23 10:32:00
5:52 AM,13.1,3.2,65,30.51,10.0,NW,4.6,-,N/A,,Clear,310,2014-03-23 10:52:00
6:12 AM,12.6,3.2,66,30.51,10.0,NW,3.5,-,N/A,,Clear,320,2014-03-23 11:12:00
6:32 AM,12.6,3.4,67,30.51,10.0,Calm,Calm,-,N/A,,Clear,0,2014-03-23 11:32:00
6:52 AM,12.2,3.2,67,30.52,10.0,Calm,Calm,-,N/A,,Clear,0,2014-03-23 11:52:00
7:12 AM,12.2,3.2,67,30.52,10.0,Calm,Calm,-,N/A,,Clear,0,2014-03-23 12:12:00
7:32 AM,12.2,3.9,69,30.52,10.0,Calm,Calm,-,N/A,,Clear,0,2014-03-23 12:32:00
7:52 AM,13.6,4.1,66,30.52,10.0,Calm,Calm,-,N/A,,Scattered Clouds,0,2014-03-23 12:52:00
8:12 AM,14.0,3.7,64,30.52,10.0,NW,3.5,-,N/A,,Mostly Cloudy,320,2014-03-23 13:12:00
8:32 AM,14.7,4.5,64,30.52,10.0,Calm,Calm,-,N/A,,Mostly Cloudy,0,2014-03-23 13:32:00
8:52 AM,15.1,4.5,63,30.52,10.0,Calm,Calm,-,N/A,,Scattered Clouds,0,2014-03-23 13:52:00
9:12 AM,15.6,5.2,63,30.52,10.0,Calm,Calm,-,N/A,,Scattered Clouds,0,2014-03-23 14:12:00
9:32 AM,16.7,5.0,60,30.52,10.0,Calm,Calm,-,N/A,,Mostly Cloudy,0,2014-03-23 14:32:00
9:52 AM,16.3,5.2,62,30.51,10.0,Calm,Calm,-,N/A,,Scattered Clouds,0,2014-03-23 14:52:00
10:12 AM,18.1,5.9,59,30.51,10.0,WSW,4.6,-,N/A,,Clear,250,2014-03-23 15:12:00
10:32 AM,18.9,6.8,59,30.51,10.0,WNW,3.5,-,N/A,,Mostly Cloudy,300,2014-03-23 15:32:00
10:52 AM,18.9,7.0,60,30.51,10.0,West,5.8,-,N/A,,Overcast,270,2014-03-23 15:52:00
11:12 AM,19.4,6.4,57,30.50,10.0,West,6.9,-,N/A,,Mostly Cloudy,280,2014-03-23 16:12:00
11:32 AM,20.1,7.3,58,30.49,10.0,West,5.8,-,N/A,,Mostly Cloudy,280,2014-03-23 16:32:00
11:52 AM,21.2,7.9,57,30.49,10.0,WSW,5.8,-,N/A,,Overcast,250,2014-03-23 16:52:00
12:12 PM,21.7,9.1,58,30.49,7.0,West,5.8,-,N/A,,Overcast,260,2014-03-23 17:12:00
12:32 PM,22.1,8.8,57,30.48,10.0,West,5.8,-,N/A,,Mostly Cloudy,270,2014-03-23 17:32:00
12:52 PM,23.5,8.1,52,30.47,10.0,West,11.5,16.1,N/A,,Mostly Cloudy,260,2014-03-23 17:52:00
1:12 PM,22.8,6.4,50,30.47,10.0,WNW,4.6,-,N/A,,Mostly Cloudy,290,2014-03-23 18:12:00
1:32 PM,24.3,8.6,51,30.46,10.0,West,10.4,-,N/A,,Mostly Cloudy,270,2014-03-23 18:32:00
1:52 PM,25.0,10.0,53,30.45,10.0,WSW,8.1,-,N/A,,Mostly Cloudy,250,2014-03-23 18:52:00
2:12 PM,25.0,8.8,50,30.44,10.0,WNW,12.7,-,N/A,,Mostly Cloudy,300,2014-03-23 19:12:00
2:32 PM,25.5,8.6,49,30.43,10.0,West,3.5,-,N/A,,Mostly Cloudy,270,2014-03-23 19:32:00
2:52 PM,26.2,8.1,46,30.42,10.0,West,12.7,-,N/A,,Overcast,280,2014-03-23 19:52:00
3:12 PM,25.9,8.6,48,30.42,10.0,NW,6.9,-,N/A,,Overcast,310,2014-03-23 20:12:00
3:32 PM,27.5,7.7,43,30.41,10.0,West,6.9,10.4,N/A,,Overcast,280,2014-03-23 20:32:00
3:52 PM,26.8,8.4,46,30.40,10.0,WSW,9.2,17.3,N/A,,Overcast,240,2014-03-23 20:52:00
4:11 PM,26.4,8.6,47,30.39,10.0,WNW,6.9,-,N/A,,Mostly Cloudy,290,2014-03-23 21:11:00
4:32 PM,27.9,7.9,43,30.39,10.0,NW,10.4,-,N/A,,Mostly Cloudy,310,2014-03-23 21:32:00
4:52 PM,26.6,8.6,47,30.38,10.0,NW,4.6,-,N/A,,Mostly Cloudy,320,2014-03-23 21:52:00
5:12 PM,27.7,8.6,45,30.37,10.0,WSW,8.1,-,N/A,,Overcast,240,2014-03-23 22:12:00
5:32 PM,28.0,8.6,44,30.37,10.0,WSW,8.1,-,N/A,,Mostly Cloudy,250,2014-03-23 22:32:00
5:52 PM,27.1,8.8,46,30.37,10.0,NW,6.9,-,N/A,,Mostly Cloudy,310,2014-03-23 22:52:00
6:12 PM,27.5,7.9,44,30.36,10.0,West,6.9,-,N/A,,Overcast,280,2014-03-23 23:12:00
6:32 PM,27.1,7.7,44,30.36,10.0,NW,6.9,-,N/A,,Mostly Cloudy,320,2014-03-23 23:32:00
6:52 PM,26.6,8.2,46,30.35,10.0,WNW,5.8,-,N/A,,Scattered Clouds,300,2014-03-23 23:52:00
7:12 PM,26.4,8.4,47,30.35,10.0,NW,4.6,-,N/A,,Scattered Clouds,310,2014-03-24 00:12:00
7:32 PM,26.2,8.6,47,30.35,10.0,Calm,Calm,-,N/A,,Scattered Clouds,0,2014-03-24 00:32:00
7:52 PM,25.7,9.5,50,30.35,10.0,Calm,Calm,-,N/A,,Clear,0,2014-03-24 00:52:00
8:12 PM,25.3,11.8,57,30.35,10.0,Calm,Calm,-,N/A,,Clear,0,2014-03-24 01:12:00
8:32 PM,24.6,11.7,58,30.35,10.0,Calm,Calm,-,N/A,,Clear,0,2014-03-24 01:32:00
8:52 PM,24.3,13.3,63,30.35,10.0,Calm,Calm,-,N/A,,Clear,0,2014-03-24 01:52:00
9:12 PM,23.0,13.1,66,30.35,10.0,Calm,Calm,-,N/A,,Clear,0,2014-03-24 02:12:00
9:32 PM,22.8,13.3,67,30.35,10.0,Calm,Calm,-,N/A,,Clear,0,2014-03-24 02:32:00
9:52 PM,22.5,13.5,68,30.35,10.0,Calm,Calm,-,N/A,,Scattered Clouds,0,2014-03-24 02:52:00
10:12 PM,22.6,13.8,69,30.35,10.0,Calm,Calm,-,N/A,,Overcast,0,2014-03-24 03:12:00
10:32 PM,21.9,13.8,71,30.35,10.0,Calm,Calm,-,N/A,,Overcast,0,2014-03-24 03:32:00
10:52 PM,22.1,13.5,69,30.36,10.0,Calm,Calm,-,N/A,,Scattered Clouds,0,2014-03-24 03:52:00
11:12 PM,22.1,13.6,70,30.35,10.0,Calm,Calm,-,N/A,,Clear,0,2014-03-24 04:12:00
11:32 PM,21.7,13.1,69,30.35,10.0,Calm,Calm,-,N/A,,Clear,0,2014-03-24 04:32:00
11:52 PM,23.0,13.1,66,30.35,10.0,Calm,Calm,-,N/A,,Clear,0,2014-03-24 04:52:00